Regional Weather Roundup
Issued by NWS Cleveland, OH

Home | Current Version | Previous Version | Graphics & Text | Print | Product List | Glossary On
Versions: 1 2 3 4 5 6 7 8 9 10 11 12 13 14 15 16 17 18 19 20 21 22 23 24 25 26 27 28 29 30 31 32 33 34 35 36 37 38 39 40 41 42 43 44 45 46 47 48 49 50
000
ASUS41 KCLE 240800
RWRCLE
OHIO REGIONAL WEATHER ROUNDUP
NATIONAL WEATHER SERVICE WILMINGTON, OH
300 AM EST FRI FEB 24 2017

NOTE: "FAIR" INDICATES FEW OR NO CLOUDS BELOW 12,000 FEET WITH NO
SIGNIFICANT WEATHER AND/OR OBSTRUCTIONS TO VISIBILITY.

OHZ001>008-015>018-024>027-034-035-043-044-240900-
   NORTHWEST OHIO

CITY           SKY/WX    TMP DP  RH WIND       PRES   REMARKS
DEFIANCE       TSTM      43  42  97 E8        29.72F FOG
FINDLAY        FAIR      47  43  86 E7        29.70F
TOLEDO EXPRESS LGT RAIN  42  41  96 E14       29.73F
TOLEDO EXEC    CLOUDY    42  41  96 NE12      29.75F
LIMA           CLOUDY    58  56  93 S10       29.69F
$$

OHZ009>014-019>023-028>033-038-089-240900-
   NORTHEAST OHIO

CITY           SKY/WX    TMP DP  RH WIND       PRES   REMARKS
CLE-HOPKINS    MOCLDY    49  46  90 NW3       29.76F FOG
CLE-LAKEFRONT  FAIR      40  38  93 NE5       29.74S FOG
CUY CO. ARPT   NOT AVBL
LORAIN-ELYRIA  CLOUDY    48  45  89 NE5       29.74F FOG
ASHTABULA      CLOUDY    49  49 100 NE5       29.77F FOG
AKRON-CANTON   MOCLDY    58  53  84 S9        29.77R
WOOSTER        NOT AVBL
MANSFIELD      CLOUDY    57  55  93 S9        29.74F
YOUNGSTOWN     FAIR      56  53  90 SE7       29.78F
$$

OHZ042-051>053-060>062-070>072-077>081-240900-
  SOUTHWEST OHIO

CITY           SKY/WX    TMP DP  RH WIND       PRES   REMARKS
CINC-COVINGTON MOCLDY    56  53  90 S8        29.72S
CINC-LUNKEN    FAIR      59  54  83 SW3       29.74R
HAMILTON       FAIR      61  55  81 SE5       29.73S
DAYTON         NOT AVBL
WRIGHT-PAT AFB MOCLDY    60  57  91 S9        29.72S
DAYTON GENERAL CLOUDY    61  54  77 S12       29.72S
WILMINGTON     FAIR      59  53  80 S12       29.74R
$$

OHZ036-037-039>041-045>050-054>059-063>069-073>076-082>088-240900-
  CENTRAL AND SOUTHEAST OHIO

CITY           SKY/WX    TMP DP  RH WIND       PRES   REMARKS
COLUMBUS       MOCLDY    60  56  86 SE6       29.74S
OSU AIRPORT    FAIR      58  56  93 S6        29.74S
BOLTON FIELD   NOT AVBL
RICKENBACK AFB NOT AVBL
NEWARK         FAIR      52  50  93 CALM      29.75S
MARION         MOCLDY    58  54  86 S12       29.73F
LANCASTER      FAIR      62  54  74 S9        29.76S
ZANESVILLE     FAIR      56  52  86 S7        29.77S
NEW PHILLY     FAIR      54  54 100 CALM      29.78F
$$



USA.gov is the U.S. government's official web portal to all federal, state and local government web resources and services.